Volver al catálogo

JILIN 1

ActivoCienciaSSO
NORAD 40961·PAYLOAD·🇨🇳 China

Lanzado Oct 7, 2015 desde Jiuquan Satellite Launch Center

Loading…

Próximos Pases (próximas 24 horas)

TLE

ActualizadoSource: Space-Track

Época: Sep 14, 2026, 13:37 UTC

1 40961U 15057D   26257.56749051  .00000513  00000-0  77274-4 0  9997
2 40961  97.6578 252.5316 0016332 337.6208  22.4289 14.78275663588818

Sigue JILIN 1 en tiempo real con AllMySat

Download on the App Store